Orbital Elements at Epoch 2459200.5 (2020-Dec-17.0) TDB
Reference: JPL 24 (heliocentric ecliptic J2000)
Element | Value | Uncertainty (1-sigma) | Units |
e | .0764800825194959 | 6.0221e-08 | |
a | 2.717535580212706 | 2.1767e-08 | au |
q | 2.509698234788372 | 1.7033e-07 | au |
i | 4.170761665300335 | 4.1409e-06 | deg |
node | 274.1405507626459 | 8.5008e-05 | deg |
peri | 96.95601857202354 | 8.97e-05 | deg |
M | 241.3660350537364 | 3.0595e-05 | deg |
tp | 2459739.722281976053 (2022-Jun-09.22228198) | 0.00014174 | TDB |
period | 1636.293801689149 4.48 | 1.966e-05 5.383e-08 | d yr |
n | .2200093892847185 | 2.6434e-09 | deg/d |
Q | 2.925372925637039 | 2.3432e-08 | au |
|
| | Orbit Determination Parameters
Additional Information
|